Regional Weather Roundup
Issued by NWS

Home | Current Version | Previous Version | Text Only | Print | Product List | Glossary On
Versions: 1 2 3 4 5 6 7 8 9 10 11 12 13 14 15 16 17 18 19 20 21 22 23 24 25 26 27 28 29 30 31 32 33 34 35 36 37 38 39 40 41 42 43 44 45 46 47 48 49 50
000
ASHW40 PHFO 030943
RWRHI

WEATHER ROUNDUP FOR HAWAII
NATIONAL WEATHER SERVICE HONOLULU HI
1100 PM HST WED SEP 02 2015

THIS IS AN AUTOMATED REPORT THAT HAS NOT BEEN QUALITY CONTROLLED.

NOTE..."FAIR" INDICATES FEW OR NO CLOUDS BELOW 12,000 FEET WITH NO
SIGNIFICANT WEATHER AND/OR OBSTRUCTIONS TO VISIBILITY.

* - THESE SITES REPORT LIMITED FIELDS

HIZ001>004-031000-
KAUAI-NIIHAU-

CITY           SKY/WX    TMP DP  RH WIND       PRES   REMARKS
LIHUE APT      CLEAR     78  74  87 W3        29.88F
PORT ALLEN*    NOT AVBL
POIPU*           N/A     77 N/A N/A NW1         N/A
PRINCEVILLE*     N/A     75 N/A N/A MISG        N/A
KOKOLE POINT*  NOT AVBL
MOLOAA DAIRY*    N/A     75  75 100 SW1         N/A
WAIMEA HTS*      N/A     77  72  83 N1          N/A
PUU OPAE*        N/A     72  66  83 NE5         N/A
PUU LUA*       NOT AVBL
MAKAHA RIDGE*    N/A     72  66  83 CALM        N/A
$$

HIZ005>011-031000-
OAHU-

CITY           SKY/WX    TMP DP  RH WIND       PRES   REMARKS
HONOLULU       PTCLDY    81  75  82 E3        29.89S
KALAELOA       PTCLDY    79  75  89 CALM      29.90S
KANEOHE MCB    CLEAR     80  75  84 CALM      29.86S
WHEELER FIELD  FAIR      77  74  90 SE1       29.90S
BELLOWS*         N/A    N/A N/A N/A SW2         N/A
KAHUKU*          N/A    N/A N/A N/A E2          N/A
WHEELER*       NOT AVBL
WAIANAE HARBOR NOT AVBL
DILLINGHAM*      N/A     75  72  88 MISG        N/A
KAHUKU TRN*      N/A     75  73  94 S3          N/A
KAWAILOA*        N/A     75  72  88 E5          N/A
KII*             N/A     79  77  94 E1          N/A
MAKUA RANGE*     N/A     77  72  83 E6          N/A
OAHU FOREST NW   N/A     72  68  88 CALM        N/A
SCHOFIELD BRK*   N/A     73  70  88 MISG        N/A
SCHOFIELD S*   NOT AVBL
WAIANAE VLY*     N/A     90  86  89 MISG        N/A  HX 119
KUAOKALA*        N/A     77  72  83 SE2         N/A
HONOULIUULI*   NOT AVBL
MOKUOLOE IS*     N/A    N/A N/A N/A MISG        N/A
PALEHUA*         N/A     72  70  94 E8G14       N/A
WAIAWA PHB*    NOT AVBL
$$

HIZ012>013-031000-
MOLOKAI-

CITY           SKY/WX    TMP DP  RH WIND       PRES   REMARKS
MOLOKAI AIRPT  CLEAR     79  74  84 SE6       29.92S
KALAUPAPA      NOT AVBL
MAKAPULAPAI*     N/A     75  73  94 S3          N/A
MOLOKAI 1*       N/A     82  72  69 SE3G12      N/A
PUU ALII*        N/A     63  59  88 SE1G8       N/A
$$

HIZ016-031000-
KAHOOLAWE-

CITY           SKY/WX    TMP DP  RH WIND       PRES   REMARKS
KAHOOLAWE*       N/A     75 N/A N/A SE7         N/A
HAKIOAWA*        N/A     77  76  96 MISG      30.34S
HONOKANAIA*      N/A     82  76  80 E7G13     29.85R
KANELOA*         N/A     79  75  89 SE6       29.99R
KEALIALALO*      N/A     79  75  89 S7G13     29.92S
LUA MAKIKA*    NOT AVBL
$$

HIZ014>015-031000-
LANAI-

CITY           SKY/WX    TMP DP  RH WIND       PRES   REMARKS
LANAI CITY     MOCLDY    75  73  94 SE7       29.98S
LANAI 1*         N/A     75  72  88 SE9         N/A
$$

HIZ017>028-031000-
MAUI-

CITY           SKY/WX    TMP DP  RH WIND       PRES   REMARKS
KAHULUI        CLEAR     77  73  87 SE5       29.91S
KAPALUA-W MAUI NOT AVBL
HANA AIRPORT   PTCLDY    77  73  88 SE3       29.93S
HANA*            N/A     79 N/A N/A S2          N/A
HALEAKALA SUMM   N/A     46  46 100 SE16        N/A
MAALAEA BAY*   NOT AVBL
HALEAKALA*     NOT AVBL
KAUPO GAP*       N/A     63  59  88 N5G12       N/A
KULA 1*          N/A     58  53  82 SE2         N/A
$$

HIZ023>026-031000-
BIG ISLAND OF HAWAII COAST AND LOWER SLOPES-

CITY           SKY/WX    TMP DP  RH WIND       PRES   REMARKS
KAILUA KONA    CLOUDY    80  73  79 E3        29.90S
HILO           PTCLDY    78  75  90 CALM      29.93R
HONOKAA*       NOT AVBL
KAWAIHAE MWT*    N/A     81 N/A N/A E3          N/A
KAWAIHAE*        N/A     82 N/A N/A E3          N/A
SOUTH POINT*     N/A     75 N/A N/A NE3         N/A
UPOLU AIRPORT*   N/A    N/A N/A N/A SE6         N/A
KAMUELA*       NOT AVBL
HAKALAU*         N/A     58  55  90 SW7         N/A
KALOKO-HONOKO*   N/A     75  72  88 E1        29.89S
PALI 2*          N/A     68  66  94 CALM        N/A
KEALAKOMO*       N/A     79  70  73 SE2G8       N/A
KAUPULEHU*       N/A     73  70  88 SE5         N/A
KAPAPALA*        N/A     68  67  97 N3          N/A
LOWER KAHUKU*    N/A     66 N/A N/A N1          N/A
PUHE CS*         N/A     81  73  78 E2          N/A
PUHO CS*         N/A     74  32  21 E2          N/A
PTA KEAMUKU*     N/A     64  63  94 CALM        N/A
WAIKOLOA*        N/A     73  72  94 SE3         N/A
$$

HIZ027>028-031000-
BIG ISLAND OF HAWAII INTERIOR AND SUMMMITS-

CITY           SKY/WX    TMP DP  RH WIND       PRES   REMARKS
BRADSHAW FIELD MOCLDY    57  57 100 W2        30.29R FOG
MK VISITOR CEN   N/A     52  43  71 E7          N/A
MAUNA KEA*       N/A     37  32  81 W15         N/A  WCI  28
MAUNA LOA*       N/A     46  37  71 MISG        N/A
MAUNA LOA 1*   NOT AVBL
PTA KIPUKA*      N/A     61  61 100 S1          N/A
PTA RANGE 17*    N/A     59  57  94 NW2         N/A
PTA WEST*        N/A    N/A N/A N/A SE3         N/A
NENE CABIN*      N/A     55  48  76 NE3         N/A
AHUMOA*          N/A     56  53  89 NE5         N/A
PTA PORTABLE*  NOT AVBL
PUU MALI*        N/A     55  54  94 SW7         N/A
$$

HIC003-031000-
NORTHWEST ISLANDS-

CITY           SKY/WX    TMP DP  RH WIND       PRES   REMARKS
MIDWAY ISLAND  CLEAR     82  77  83 E7        29.94S HX  91
MIDWAY NOS*    NOT AVBL
FRENCH FRIGATE NOT AVBL
$$

PHZ110>124-180-031000-
BUOY REPORTS

STATION/POSITION TIME  TEMP    WIND        PRES    WAVE   SWELL
                       AIR SEA DIR/SP/G            HT/PER HT/DIR
                 (UTC) (F)     (DEG/KT/KT) (MB)    (FT/S) (FT/D)
BUOY 51001       0854   81 83  290/ 12/ 16 1010.0
BUOY 51101       0900   81 83  300/ 12/ 16 1009.6R  10/11  10/ 60
BUOY 51100       NOT AVBL
BUOY 51002       0900   83 84  140/  8/ 12 1012.1F   7/13   7/100
BUOY 51003       0900   83 85  100/  4/  6 1011.7S   7/15   7/100
BUOY 51004       0815   82 84   50/ 10/ 14 1012.4F  10/15  10/100
BARBERS PT BUOY  NOT AVBL
WAIMEA BAY BUOY  0900      83                N/A     7/11   5/350
KAILUA BAY BUOY  0900      83                N/A     8/11   5/ 10
LANAI BUOY       NOT AVBL
BARBERS PT 2     0900      84                N/A     4/15   3/190
PAUWELA MAUI     0900      82                N/A     9/12   7/ 90
HILO             NOT AVBL
KANEOHE BAY BUOY 0900      84                N/A     8/13   5/ 30
HANALEI KAUAI    0900      84                N/A    11/11  10/ 10
KAHULUI HARBOR   0900   79 83  270/  1/  2 1012.5S
HONOLULU HARBOR  0900   82 83  110/  2/  3 1012.2F
KILO NALU        NOT AVBL
HILO HARBOR      0900   78 80  190/  3/  4 1013.0R
MOKUOLOE         0900   79 87  190/  2/  3 1012.3S
NAWILIWILI       0900   77 84  280/  5/  6 1011.7F
WHOTS BUOY       NOT AVBL
BUOY 51028       NOT AVBL
$$

......................KEY........................................
  SKY/WX - SKY CONDITIONS/PRESENT WEATHER
  TMP    - TEMPERATURE IN FAHRENHEIT
  DWPT   - DEWPOINT IN FAHRENHEIT
  RH     - RELATIVE HUMIDITY IN PERCENT
  WIND   - DIRECTION AND SPEED /MPH FOR ISLANDS...KTS FOR BUOYS/
  PRES   - MEAN SEA LEVEL PRESSURE IN INCHES OF HG
  VSB    - VISIBILITY IN MILES
  HX     - HEAT INDEX
  WCI    - WIND CHILL INDEX
  VRB    - VARIABLE WIND DIRECTION
  N/A    - NOT AVAILABLE



USA.gov is the U.S. government's official web portal to all federal, state and local government web resources and services.